This is the latest recevied weather packets stored in our database for station/object K5NWZ. If no packets are shown the sender has not sent any weather packets the latest 10 day(s).
| Time | Temp. | Humidity | Pressure | Rain* | Wind** | Luminosity | Snow |
|---|---|---|---|---|---|---|---|
| 1778006736 | 3.33° C | 94% | 1023.3 hPa | 3.05 mm | - | 432 W/m² | - |
| 1778006433 | 2.78° C | 94% | 1023.3 hPa | 3.05 mm | - | 374 W/m² | - |
| 1778006130 | 2.78° C | 94% | 1023.2 hPa | 3.05 mm | - | 318 W/m² | - |
| 1778005827 | 2.78° C | 94% | 1023.5 hPa | 4.32 mm | - | 235 W/m² | - |
| 1778005523 | 2.78° C | 94% | 1023.4 hPa | 4.83 mm | - | 230 W/m² | - |
| 1778005220 | 2.22° C | 94% | 1023.7 hPa | 3.56 mm | - | 203 W/m² | - |
| 1778004917 | 2.78° C | 94% | 1023.7 hPa | 3.05 mm | - | 183 W/m² | - |
| 1778004614 | 2.78° C | 94% | 1023.8 hPa | 4.32 mm | - | 168 W/m² | - |
| 1778004310 | 2.78° C | 94% | 1023.9 hPa | 3.05 mm | - | 188 W/m² | - |
| 1778004008 | 2.22° C | 94% | 1023.9 hPa | 3.05 mm | - | 170 W/m² | - |
| 1778003702 | 2.78° C | 94% | 1023.9 hPa | 6.1 mm | - | 173 W/m² | - |
| 1778003400 | 2.22° C | 94% | 1023.8 hPa | 3.05 mm | - | 169 W/m² | - |
| 1778003097 | 2.78° C | 94% | 1024 hPa | 3.05 mm | - | 186 W/m² | - |
| 1778002793 | 2.78° C | 94% | 1023.9 hPa | 4.32 mm | - | 197 W/m² | - |
| 1778002490 | 2.22° C | 94% | 1023.7 hPa | 3.05 mm | - | 158 W/m² | - |
| 1778002186 | 2.22° C | 94% | 1023.7 hPa | 3.56 mm | - | 134 W/m² | - |
| 1778001885 | 2.78° C | 94% | 1024 hPa | 4.83 mm | - | 141 W/m² | - |
| 1778001584 | 2.78° C | 93% | 1024.1 hPa | 3.05 mm | - | 173 W/m² | - |
| 1778001281 | 2.22° C | 93% | 1024.4 hPa | 3.05 mm | - | 133 W/m² | - |
| 1778000978 | 2.78° C | 93% | 1024.4 hPa | 6.1 mm | - | 178 W/m² | - |
| 1778000675 | 2.78° C | 93% | 1024.2 hPa | 6.1 mm | - | 250 W/m² | - |
| 1778000370 | 2.78° C | 93% | 1024.1 hPa | 4.32 mm | - | 265 W/m² | - |
| 1778000066 | 2.22° C | 94% | 1024.2 hPa | 6.6 mm | - | 232 W/m² | - |
| 1777999761 | 2.22° C | 94% | 1024.1 hPa | 6.6 mm | - | 204 W/m² | - |
| 1777999458 | 2.22° C | 95% | 1024.1 hPa | 7.11 mm | - | 203 W/m² | - |
* Rain latest hour (hover to see other rain measurements)
** Current wind speed in m/s (hover to see current wind gust speed)